{"data":{"norad_id":64021,"intl_designator":"2025-101AD","name":"STARLINK-34062","alt_names":[],"object_type":"PAYLOAD","status":"ACTIVE","operator":null,"country":"US","launch_date":"2025-05-14","launch_site_code":"AFETR","launch_vehicle":null,"mission":null,"orbit_class":"UNKNOWN","rcs_meters":null,"size_class":null,"mass_kg":null,"dimensions":null,"purposes":["comms"],"wikipedia_slug":null,"has_3d_model":false,"image_url":null,"decayed_at":null,"tle_current":{"epoch":"2026-09-20T21:46:54.352992Z","epoch_age_seconds":108478,"freshness":"FRESH","line1":"1 64021U 25101AD  26263.90757353  .00013925  00000+0  51428-3 0  9992","line2":"2 64021  43.0009 335.2660 0001582 269.0448  91.0222 15.27599222 76918","mean_motion":15.27599222,"eccentricity":0.0001582,"inclination_deg":43.0009,"raan_deg":335.266,"arg_perigee_deg":269.0448,"mean_anomaly_deg":91.0222,"bstar":0.00051428,"rev_number":7691,"period_min":94.265562541639,"perigee_km":481.90610852524,"apogee_km":484.076969595,"semimajor_km":6861.1285390601,"source":"CELESTRAK","updated_at":"2026-09-21T09:00:35.185423Z"}}}